Regional Weather Roundup
Issued by NWS

Home | Current Version | Previous Version | Graphics & Text | Print | Product List | Glossary On
Versions: 1 2 3 4 5 6 7 8 9 10 11 12 13 14 15 16 17 18 19 20 21 22 23 24 25 26 27 28 29 30 31 32 33 34 35 36 37 38 39 40 41 42 43 44 45 46 47 48 49 50
000
ASUS43 KLOT 170410
RWRIL

ILLINOIS REGIONAL WEATHER ROUNDUP
NATIONAL WEATHER SERVICE CHICAGO/ROMEOVILLE IL
1100 PM CDT WED APR 16 2014

NOTE: "FAIR" INDICATES FEW OR NO CLOUDS BELOW 12,000 FEET WITH NO
SIGNIFICANT WEATHER AND/OR OBSTRUCTIONS TO VISIBILITY.

* THESE STATIONS ARE NOT UNDER NWS QUALITY CONTROL. THEY ALSO MAY NOT
  REPORT WEATHER SUCH AS PRECIPITATION OR FOG.

ILZ001-002-007-009-015-016-024-170500-
NORTHWEST ILLINOIS

CITY           SKY/WX    TMP DP  RH WIND       PRES   REMARKS
MOLINE         MOCLDY    48  27  44 SE18G25   30.01F
STERLING*      CLOUDY    46  28  49 SE10G20   30.07S
SAVANNA*       CLOUDY    47  29  47 SE16G22   30.04S
$$

ILZ003-004-008-010-011-017-018-170500-
NORTH CENTRAL ILLINOIS

CITY           SKY/WX    TMP DP  RH WIND       PRES   REMARKS
ROCKFORD       CLOUDY    43  30  60 SE12      30.12S
FREEPORT*      CLOUDY    46  31  56 SE20G25   30.07F
ROCHELLE*      CLOUDY    43  31  62 SE15G22   30.10F
DE KALB*       MOCLDY    40  28  63 SE14      30.13F
PERU*          MOCLDY    45  31  57 SE15      30.11F
$$

ILZ005-006-012>014-019>023-170500-
NORTHEAST ILLINOIS

CITY           SKY/WX    TMP DP  RH WIND       PRES   REMARKS
CHICAGO-OHARE  MOCLDY    45  23  42 S14       30.16R
CHICAGO-MIDWAY PTCLDY    46  24  42 SE14G24   30.17R
AURORA         PTCLDY    42  27  55 SE9       30.15S
LANSING*       CLEAR     43  24  47 S14G23    30.18R
WAUKEGAN       MOCLDY    40  30  67 SE9       30.17R
DUPAGE AIRPORT PTCLDY    44  25  47 S13       30.15R
KANKAKEE*      CLEAR     43  27  54 SE12      30.18R
WHEELING       PTCLDY    46  24  42 S15       30.17R
MORRIS*        PTCLDY    44  24  45 S9        30.16S
ROMEOVILLE*    CLEAR     40  27  59 S12       30.16S
NORTHERLY ISL    N/A     45  31  58 SE18        N/A
$$

LMZ740>746-170500-
SOUTHERN LAKE MICHIGAN

STATION/POSITION SKY/WX   TEMP    WIND        PRES    VSBY  WAVE
                          AIR SEA DIR/SP/G                  HT/PER
                          (F)     (DEG/KT/KT) (MB)    (MI)  (FT/S)
WAUKEGAN HARBOR            40     170/ 11/ 14 1023.0R
HARRISON CRIB              44     150/ 20/ 26   N/A
BURNHAM HARBOR             45     150/ 16/ 23   N/A
CALUMET HARBOR             45     140/ 15/ 19 1022.2R
MICHIGAN CITY              44     120/ 17/ 26   N/A
$$

ILZ025>027-034>036-040-047-049-050-058-095>099-170500-
WEST-CENTRAL ILLINOIS

CITY           SKY/WX    TMP DP  RH WIND       PRES   REMARKS
QUINCY         PTCLDY    48  27  44 S14       30.03S
GALESBURG*     CLOUDY    47  31  52 SE12G18   30.04S
MACOMB*        CLOUDY    46  31  55 SE15G21   30.06F
JACKSONVILLE*  PTCLDY    45  31  58 SE10      30.10F
PITTSFIELD*    CLEAR     48  28  45 SE13      30.08S
$$

ILZ028>032-037-038-041>044-048-051>054-059>061-170500-
CENTRAL ILLINOIS

CITY           SKY/WX    TMP DP  RH WIND       PRES   REMARKS
PONTIAC        PTCLDY    43  30  61 SE8       30.16F
BLOOMINGTON    PTCLDY    38  28  67 S12       30.15S WCI  30
DECATUR        PTCLDY    43  29  57 S6        30.16R
PEORIA         CLOUDY    48  28  46 S14G23    30.10F
LACON*         CLOUDY    46  30  54 S16       30.10F
LINCOLN*       PTCLDY    41  32  70 SE8       30.14F
SPRINGFIELD    CLEAR     46  29  51 S15       30.14S
TAYLORVILLE    PTCLDY    41  30  65 S6        30.15S
$$

ILZ033-039-045-046-055>057-062-063-170500-
EAST-CENTRAL ILLINOIS

CITY           SKY/WX    TMP DP  RH WIND       PRES   REMARKS
CHAMPAIGN      PTCLDY    42  29  59 SE9       30.16R
RANTOUL*       PTCLDY    42  29  59 CALM      30.18R
MATTOON        CLEAR     45  26  47 SE13      30.14S
PARIS*         CLEAR     42  29  58 SE10      30.17F
$$

ILZ079-100>102-170500-
SOUTHWEST ILLINOIS

CITY           SKY/WX    TMP DP  RH WIND       PRES   REMARKS
ALTON          CLEAR     45  27  49 S9        30.15S
BELLEVILLE     CLEAR     44  31  61 CALM      30.16R
CAHOKIA*       CLEAR     45  30  55 S5        30.15R
SPARTA*        CLEAR     43  30  61 CALM      30.15R
$$

ILZ064>066-069>071-074>076-080>082-084>086-088>090-092>094-170500-
SOUTH-CENTRAL ILLINOIS

CITY           SKY/WX    TMP DP  RH WIND       PRES   REMARKS
CARBONDALE     CLEAR     46  29  51 SE7       30.15S
CAIRO*         CLEAR     45  36  69 CALM      30.16S
MARION         CLEAR     48  30  49 SE6       30.16S
MT. VERNON     CLEAR     45  25  45 SE5       30.16S
CENTRALIA*       N/A     44  30  57 SE6       30.15R
SALEM*         CLEAR     48  32  54 SE7       30.15R
METROPOLIS*    PTCLDY    46  30  55 E3        30.16F
$$

ILZ067-068-072-073-078-083-087-091-170500-
SOUTHEAST ILLINOIS

CITY           SKY/WX    TMP DP  RH WIND       PRES   REMARKS
FAIRFIELD*     CLEAR     46  34  61 SE8       30.16S
HARRISBURG*    CLEAR     45  33  63 SE7       30.18F
ROBINSON*      CLEAR     46  32  58 SE9       30.18F
CARMI*         PTCLDY    44  37  76 SE10      30.16F
$$

ABBREVIATIONS USED IN REMARKS
   TC - TEMPERATURE IN CELSIUS
  WCI - WIND CHILL INDEX
   HX - HEAT INDEX
  VSB - VISIBILITY
$$




USA.gov is the U.S. government's official web portal to all federal, state and local government web resources and services.